Location: B?lite?ti
(46.2833°N, 22.7333°E)
Time: 17:15:47
(UTC+00:00)

Cosmos 1340 - Pass Details

Date: 24 January 2021
Orbit: 500 x 504 km, 81.2° (Epoch: 28 February)

Event Time Altitude Azimuth Distance (km) Brightness Sun altitude
Rises 16:12:23 0° 154° (SSE) 2,584 6.2 -8.8°
Reaches altitude 10° 16:14:54 10° 137° (SE) 1,706 5.1 -9.3°
Maximum altitude 16:17:38 20° 90° (E) 1,223 4.0 -9.7°
Enters shadow 16:20:04 12° 46° (NE) 1,618 4.7 -10.1°
